This is the latest recevied weather packets stored in our database for station/object KD7KCN-5. If no packets are shown the sender has not sent any weather packets the latest 10 day(s).
| Time | Temp. | Humidity | Pressure | Rain* | Wind** | Luminosity | Snow |
|---|---|---|---|---|---|---|---|
| 1777905112 | 13.33° C | 53% | 1010.4 hPa | 0 mm | - | 178 W/m² | - |
| 1777903912 | 12.22° C | 53% | 1010.4 hPa | 0 mm | - | 90 W/m² | - |
| 1777903312 | 12.22° C | 54% | 1010.5 hPa | 0 mm | - | 88 W/m² | - |
| 1777902711 | 12.22° C | 52% | 1010.4 hPa | 0 mm | - | 42 W/m² | - |
| 1777902112 | 12.22° C | 51% | 1010.4 hPa | 0 mm | - | 83 W/m² | - |
| 1777901512 | 12.78° C | 50% | 1010.2 hPa | 0 mm | - | 33 W/m² | - |
| 1777900312 | 12.22° C | 50% | 1009.8 hPa | 0 mm | - | 51 W/m² | - |
| 1777899712 | 12.22° C | 50% | 1009.7 hPa | 0 mm | - | 19 W/m² | - |
| 1777899112 | 12.22° C | 50% | 1009.4 hPa | 0 mm | - | 9 W/m² | - |
| 1777898512 | 12.22° C | 49% | 1009.5 hPa | 0 mm | - | 0 W/m² | - |
| 1777897914 | 12.78° C | 49% | 1009.6 hPa | 0 mm | - | 0 W/m² | - |
| 1777897312 | 12.78° C | 48% | 1009.6 hPa | 0 mm | - | 0 W/m² | - |
| 1777896712 | 13.33° C | 47% | 1009.6 hPa | 0 mm | - | 0 W/m² | - |
| 1777896112 | 13.33° C | 47% | 1009.5 hPa | 0 mm | - | 0 W/m² | - |
| 1777895513 | 13.33° C | 47% | 1009.5 hPa | 0 mm | - | 0 W/m² | - |
| 1777894912 | 13.33° C | 47% | 1009.6 hPa | 0 mm | - | 0 W/m² | - |
| 1777894312 | 13.33° C | 46% | 1009.7 hPa | 0 mm | - | 0 W/m² | - |
| 1777893712 | 13.33° C | 46% | 1009.7 hPa | 0 mm | - | 0 W/m² | - |
| 1777893113 | 13.89° C | 46% | 1009.7 hPa | 0 mm | - | 0 W/m² | - |
| 1777892512 | 13.89° C | 45% | 1009.7 hPa | 0 mm | - | 0 W/m² | - |
| 1777891912 | 13.89° C | 46% | 1009.8 hPa | 0 mm | - | 0 W/m² | - |
| 1777891312 | 13.33° C | 46% | 1009.8 hPa | 0 mm | - | 0 W/m² | - |
| 1777890712 | 13.33° C | 46% | 1009.6 hPa | 0 mm | - | 0 W/m² | - |
| 1777890113 | 13.33° C | 47% | 1009.6 hPa | 0 mm | - | 0 W/m² | - |
| 1777889512 | 13.33° C | 47% | 1009.6 hPa | 0 mm | - | 0 W/m² | - |
* Rain latest hour (hover to see other rain measurements)
** Current wind speed in m/s (hover to see current wind gust speed)